QPF
0.00 0.00 0.00 0.00 0.00 0.00 0.00 0.00 0.00 0.00 0.00 0.00 0.00 0.00 0.00 0.00 0.00 0.00 0.00 0.00 0.00 0.00 0.00 0.00 0.00 0.00 0.00 0.00 0.00 0.00 0.00 0.00 0.00 0.00 0.00 0.00 0.00 0.00 0.00 0.00 0.00 0.00 0.00 0.00 0.00 0.00 0.00 0.00 0.00 0.00 0.00 0.00 0.00 0.05
0.00 0.00 0.00 0.00 0.00 0.00 0.00 0.00 0.00 0.00 0.00 0.00 0.00 0.00 0.00 0.00 0.00 0.00 0.00 0.00 0.00 0.00 0.00 0.00 0.00 0.00 0.00 0.00 0.00 0.00 0.00 0.00 0.00 0.00 0.00 0.00 0.00 0.00 0.00 0.00 0.00 0.00 0.00 0.00 0.00 0.00 0.00 0.00 0.00 0.00 0.00 0.00 0.00 0.00
0.00 0.00 0.00 0.00 0.00 0.00 0.00 0.00 0.00 0.00 0.00 0.00 0.00 0.00 0.00 0.00 0.00 0.00 0.00 0.00 0.00 0.00 0.00 0.00 0.00 0.00 0.00 0.00 0.00 0.00 0.00 0.00 0.00 0.00 0.00 0.00 0.00 0.00 0.00 0.00 0.00 0.00 0.00 0.00 0.00 0.00 0.00 0.00 0.00 0.00 0.00 0.00 0.00 0.00
0.00 0.00 0.00 0.00 0.00 0.00 0.00 0.00 0.00 0.00 0.00 0.00 0.00 0.00 0.00 0.00 0.00 0.00 0.00 0.00 0.00 0.00 0.00 0.00 0.00 0.00 0.00 0.00 0.00 0.00 0.00 0.00 0.00 0.00 0.00 0.00 0.00 0.00 0.00 0.00 0.00 0.00 0.00 0.00 0.00 0.00 0.00 0.00 0.00 0.00 0.00 0.00 0.00 0.00
0.00 0.00 0.00 0.00 0.00 0.00 0.00 0.00 0.00 0.00 0.00 0.00 0.00 0.00 0.00 0.00 0.00 0.00 0.00 0.00 0.00 0.00 0.00 0.00 0.00 0.00 0.00 0.00 0.00 0.00 0.00 0.00 0.00 0.00 0.00 0.00 0.00 0.00 0.00 0.00 0.00 0.00 0.00 0.00 0.00 0.00 0.00 0.00 0.00 0.00 0.00 0.00 0.00 0.00
0.00 0.00 0.00 0.00 0.00 0.00 0.00 0.00 0.00 0.00 0.00 0.00 0.00 0.00 0.00 0.00 0.00 0.00 0.00 0.00 0.00 0.00 0.00 0.00 0.00 0.00 0.00 0.00 0.00 0.00 0.00 0.00 0.00 0.00 0.00 0.00 0.00 0.00 0.00 0.00 0.00 0.00 0.00 0.00 0.00 0.00 0.00 0.00 0.02 0.24 0.29 0.02 0.00 0.00
0.00 0.00 0.00 0.00 0.00 0.00 0.00 0.00 0.00 0.00 0.00 0.00 0.00 0.00 0.00 0.00 0.00 0.00 0.00 0.00 0.00 0.00 0.00 0.00 0.00 0.00 0.00 0.00 0.00 0.00 0.00 0.00 0.00 0.00 0.00 0.00 0.00 0.00 0.00 0.00 0.00 0.00 0.00 0.00 0.00 0.00 0.00 0.00 0.00 0.03 0.02 0.00 0.00 0.00
0.00 0.00 0.00 0.00 0.00 0.00 0.00 0.00 0.00 0.00 0.00 0.00 0.00 0.00 0.00 0.00 0.00 0.00 0.00 0.00 0.00 0.00 0.00 0.00 0.00 0.00 0.00 0.00 0.00 0.00 0.00 0.00 0.00 0.00 0.00 0.00 0.00 0.00 0.00 0.00 0.00 0.00 0.00 0.00 0.00 0.00 0.00 0.00 0.04 0.03 0.04 0.01 0.00 0.00
0.00 0.00 0.00 0.00 0.00 0.00 0.00 0.00 0.00 0.00 0.00 0.00 0.00 0.00 0.00 0.01 0.00 0.00 0.00 0.00 0.00 0.00 0.00 0.00 0.00 0.01 0.00 0.00 0.00 0.00 0.00 0.00 0.00 0.00 0.00 0.00 0.00 0.00 0.00 0.00 0.00 0.00 0.00 0.00 0.00 0.00 0.00 0.01 0.55 0.36 0.12 0.03 0.00 0.00
0.00 0.00 0.00 0.00 0.00 0.00 0.00 0.00 0.00 0.00 0.00 0.00 0.00 0.00 0.01 0.00 0.00 0.00 0.00 0.00 0.00 0.00 0.00 0.00 0.00 0.00 0.00 0.00 0.00 0.00 0.00 0.00 0.01 0.00 0.00 0.00 0.00 0.00 0.00 0.00 0.00 0.00 0.00 0.00 0.00 0.00 0.00 0.00 0.03 0.17 0.05 0.00 0.00 0.00
0.00 0.00 0.00 0.00 0.00 0.00 0.00 0.00 0.00 0.00 0.00 0.01 0.03 0.02 0.00 0.00 0.00 0.00 0.03 0.00 0.00 0.00 0.00 0.00 0.00 0.00 0.00 0.00 0.00 0.00 0.00 0.00 0.00 0.00 0.00 0.00 0.00 0.00 0.00 0.00 0.00 0.00 0.00 0.00 0.00 0.00 0.00 0.00 0.00 0.01 0.01 0.00 0.00 0.00
0.00 0.00 0.00 0.00 0.00 0.00 0.00 0.00 0.00 0.00 0.00 0.00 0.00 0.00 0.00 0.01 0.02 0.03 0.04 0.01 0.00 0.00 0.00 0.00 0.00 0.00 0.00 0.00 0.04 0.02 0.01 0.03 0.00 0.00 0.00 0.00 0.00 0.00 0.00 0.00 0.00 0.00 0.00 0.00 0.00 0.00 0.00 0.00 0.00 0.06 0.01 0.00 0.00 0.00
0.00 0.00 0.00 0.00 0.00 0.00 0.00 0.00 0.00 0.00 0.00 0.01 0.02 0.02 0.05 0.03 0.03 0.01 0.01 0.01 0.00 0.00 0.00 0.00 0.00 0.00 0.00 0.00 0.04 0.16 0.05 0.08 0.04 0.02 0.02 0.00 0.00 0.00 0.00 0.00 0.00 0.00 0.00 0.00 0.00 0.00 0.00 0.00 0.00 0.01 0.00 0.00 0.00 0.00
0.00 0.00 0.00 0.00 0.00 0.00 0.00 0.00 0.00 0.00 0.00 0.01 0.02 0.01 0.03 0.01 0.00 0.00 0.00 0.00 0.00 0.00 0.00 0.00 0.00 0.00 0.00 0.00 0.01 0.13 0.08 0.05 0.12 0.07 0.00 0.00 0.00 0.00 0.00 0.00 0.00 0.00 0.00 0.00 0.00 0.00 0.00 0.00 0.00 0.00 0.00 0.00 0.00 0.00
0.00 0.00 0.00 0.00 0.00 0.00 0.00 0.00 0.00 0.00 0.00 0.01 0.00 0.01 0.00 0.00 0.00 0.00 0.00 0.00 0.00 0.00 0.00 0.00 0.00 0.00 0.00 0.00 0.00 0.03 0.04 0.04 0.03 0.00 0.00 0.00 0.00 0.00 0.00 0.00 0.00 0.00 0.00 0.00 0.00 0.00 0.00 0.00 0.00 0.00 0.00 0.00 0.00 0.00
0.00 0.00 0.00 0.00 0.00 0.00 0.00 0.00 0.00 0.01 0.01 0.00 0.00 0.00 0.01 0.02 0.03 0.02 0.00 0.00 0.00 0.00 0.00 0.00 0.01 0.00 0.00 0.00 0.00 0.01 0.03 0.06 0.06 0.06 0.04 0.00 0.00 0.00 0.00 0.00 0.00 0.00 0.00 0.00 0.00 0.00 0.00 0.00 0.00 0.00 0.00 0.00 0.00 0.00
0.02 0.02 0.00 0.00 0.00 0.00 0.00 0.01 0.01 0.01 0.02 0.03 0.00 0.00 0.00 0.02 0.02 0.03 0.03 0.09 0.11 0.01 0.01 0.01 0.03 0.01 0.00 0.00 0.00 0.00 0.00 0.00 0.00 0.00 0.04 0.08 0.04 0.00 0.00 0.00 0.00 0.00 0.00 0.00 0.00 0.00 0.00 0.00 0.00 0.00 0.00 0.00 0.00 0.00
0.02 0.02 0.00 0.00 0.00 0.00 0.03 0.06 0.04 0.04 0.01 0.00 0.00 0.00 0.00 0.00 0.00 0.00 0.01 0.06 0.08 0.08 0.08 0.03 0.01 0.00 0.00 0.00 0.00 0.00 0.00 0.00 0.00 0.00 0.05 0.41 0.35 0.09 0.00 0.00 0.00 0.00 0.00 0.00 0.00 0.00 0.00 0.00 0.00 0.00 0.00 0.00 0.00 0.00
0.03 0.07 0.00 0.00 0.00 0.07 0.06 0.02 0.05 0.04 0.00 0.00 0.00 0.00 0.00 0.00 0.00 0.00 0.00 0.02 0.04 0.03 0.07 0.06 0.04 0.00 0.00 0.00 0.00 0.00 0.00 0.00 0.01 0.02 0.03 0.08 0.07 0.03 0.00 0.00 0.00 0.00 0.00 0.00 0.00 0.00 0.00 0.00 0.00 0.00 0.00 0.00 0.00 0.00
0.02 0.03 0.00 0.00 0.01 0.08 0.11 0.09 0.04 0.02 0.00 0.00 0.00 0.00 0.00 0.00 0.00 0.00 0.00 0.00 0.01 0.04 0.03 0.02 0.00 0.00 0.00 0.00 0.00 0.00 0.00 0.05 0.30 0.33 0.31 0.30 0.24 0.03 0.00 0.00 0.00 0.00 0.00 0.00 0.00 0.00 0.00 0.00 0.00 0.00 0.00 0.00 0.00 0.00
0.01 0.03 0.01 0.05 0.08 0.03 0.03 0.02 0.03 0.01 0.02 0.01 0.00 0.02 0.01 0.00 0.00 0.00 0.00 0.00 0.00 0.00 0.00 0.00 0.00 0.00 0.00 0.02 0.04 0.04 0.03 0.01 0.00 0.03 0.19 0.55 0.20 0.02 0.00 0.00 0.00 0.00 0.00 0.00 0.00 0.00 0.00 0.00 0.00 0.00 0.00 0.00 0.00 0.00
0.03 0.01 0.02 0.03 0.06 0.05 0.01 0.00 0.03 0.07 0.07 0.02 0.01 0.04 0.03 0.02 0.00 0.00 0.00 0.00 0.00 0.00 0.00 0.00 0.00 0.00 0.00 0.01 0.01 0.03 0.07 0.13 0.01 0.00 0.00 0.00 0.00 0.00 0.00 0.00 0.00 0.00 0.00 0.00 0.00 0.00 0.00 0.00 0.00 0.00 0.00 0.00 0.00 0.00
0.04 0.03 0.06 0.03 0.03 0.03 0.01 0.03 0.05 0.04 0.02 0.01 0.02 0.03 0.01 0.02 0.00 0.01 0.00 0.00 0.00 0.00 0.00 0.00 0.00 0.00 0.00 0.00 0.00 0.00 0.00 0.01 0.00 0.00 0.00 0.00 0.00 0.00 0.00 0.00 0.00 0.00 0.00 0.00 0.00 0.00 0.00 0.00 0.01 0.01 0.00 0.00 0.00 0.00
0.06 0.04 0.05 0.04 0.02 0.01 0.01 0.04 0.03 0.02 0.02 0.01 0.00 0.01 0.03 0.03 0.03 0.06 0.01 0.00 0.00 0.00 0.00 0.00 0.00 0.00 0.00 0.00 0.00 0.00 0.00 0.00 0.00 0.00 0.00 0.00 0.00 0.00 0.00 0.00 0.00 0.00 0.00 0.00 0.01 0.02 0.02 0.02 0.05 0.05 0.09 0.04 0.06 0.16
0.07 0.03 0.03 0.02 0.01 0.01 0.02 0.02 0.03 0.03 0.01 0.02 0.02 0.02 0.04 0.05 0.05 0.04 0.06 0.08 0.04 0.02 0.00 0.00 0.00 0.00 0.00 0.00 0.00 0.00 0.00 0.00 0.00 0.00 0.00 0.00 0.00 0.00 0.01 0.05 0.04 0.01 0.00 0.00 0.00 0.00 0.03 0.07 0.03 0.04 0.09 0.06 0.01 0.00
0.03 0.02 0.01 0.02 0.02 0.02 0.03 0.03 0.03 0.03 0.03 0.03 0.03 0.06 0.07 0.08 0.06 0.08 0.10 0.08 0.07 0.04 0.01 0.00 0.03 0.01 0.00 0.00 0.00 0.00 0.00 0.00 0.00 0.01 0.00 0.00 0.01 0.00 0.03 0.08 0.06 0.04 0.01 0.00 0.00 0.00 0.00 0.00 0.00 0.01 0.03 0.04 0.06 0.04
0.00 0.01 0.01 0.00 0.03 0.04 0.03 0.03 0.03 0.02 0.02 0.02 0.04 0.07 0.08 0.09 0.13 0.07 0.04 0.08 0.18 0.07 0.06 0.06 0.21 0.09 0.01 0.00 0.00 0.00 0.00 0.00 0.01 0.05 0.01 0.00 0.00 0.00 0.03 0.10 0.19 0.10 0.02 0.01 0.00 0.00 0.00 0.00 0.00 0.00 0.00 0.00 0.02 0.05
0.00 0.00 0.00 0.01 0.01 0.00 0.01 0.01 0.01 0.01 0.00 0.01 0.00 0.02 0.11 0.25 0.18 0.04 0.04 0.05 0.03 0.04 0.02 0.00 0.03 0.10 0.03 0.00 0.00 0.00 0.00 0.00 0.00 0.00 0.00 0.00 0.00 0.00 0.00 0.00 0.00 0.00 0.00 0.00 0.00 0.00 0.00 0.00 0.00 0.00 0.00 0.00 0.00 0.00
0.00 0.00 0.00 0.00 0.00 0.01 0.01 0.01 0.00 0.00 0.00 0.01 0.01 0.03 0.15 0.09 0.07 0.22 0.14 0.06 0.01 0.00 0.00 0.00 0.01 0.01 0.00 0.00 0.00 0.00 0.00 0.00 0.00 0.00 0.00 0.00 0.00 0.00 0.00 0.00 0.00 0.00 0.00 0.00 0.00 0.00 0.00 0.00 0.00 0.00 0.00 0.00 0.00 0.00
0.00 0.00 0.00 0.00 0.01 0.01 0.04 0.03 0.02 0.04 0.04 0.03 0.02 0.05 0.06 0.05 0.07 0.19 0.32 0.31 0.03 0.00 0.00 0.02 0.03 0.01 0.00 0.00 0.00 0.00 0.00 0.00 0.00 0.00 0.00 0.00 0.00 0.00 0.00 0.00 0.00 0.00 0.00 0.00 0.00 0.00 0.00 0.00 0.00 0.00 0.00 0.00 0.00 0.00
0.00 0.00 0.00 0.01 0.05 0.12 0.13 0.07 0.05 0.04 0.08 0.16 0.11 0.07 0.06 0.07 0.03 0.01 0.02 0.02 0.00 0.01 0.02 0.03 0.01 0.00 0.00 0.00 0.00 0.00 0.03 0.02 0.00 0.00 0.00 0.00 0.00 0.00 0.00 0.00 0.01 0.00 0.00 0.00 0.00 0.00 0.00 0.00 0.00 0.00 0.00 0.00 0.00 0.00
0.00 0.00 0.04 0.19 0.17 0.03 0.00 0.00 0.01 0.11 0.16 0.13 0.07 0.03 0.06 0.06 0.04 0.00 0.00 0.00 0.00 0.00 0.00 0.00 0.00 0.00 0.00 0.00 0.00 0.00 0.00 0.00 0.00 0.00 0.00 0.00 0.00 0.00 0.00 0.00 0.00 0.00 0.00 0.00 0.00 0.00 0.01 0.00 0.00 0.00 0.00 0.00 0.00 0.00
0.00 0.00 0.03 0.03 0.00 0.00 0.00 0.01 0.07 0.24 0.12 0.10 0.11 0.11 0.05 0.02 0.01 0.00 0.00 0.00 0.00 0.00 0.00 0.00 0.00 0.00 0.00 0.00 0.00 0.00 0.00 0.00 0.00 0.00 0.00 0.00 0.00 0.00 0.00 0.00 0.00 0.00 0.00 0.00 0.00 0.00 0.00 0.00 0.01 0.01 0.01 0.01 0.00 0.00
MSLP
1022.19 1022.11 1021.90 1021.72 1021.46 1021.18 1020.86 1020.60 1020.44 1020.13 1019.76 1019.46 1019.10 1018.95 1018.75 1018.85 1018.80 1018.27 1016.01 1015.04 1014.63 1013.02 1010.88 1010.13 1009.29 1008.63 1007.98 1007.20 1006.37 1005.44 1005.10 1004.55 1004.14 1004.48 1004.75 1004.95 1005.38 1005.85 1006.32 1005.46 1005.22 1005.27 1005.29 1004.99 1004.85 1004.85 1004.86 1004.97 1004.66 1005.12 1005.75 1005.76 1006.28 1007.94
1021.97 1021.96 1021.82 1021.58 1021.29 1020.99 1020.68 1020.39 1020.23 1019.87 1019.45 1019.19 1018.95 1018.71 1018.69 1018.77 1018.73 1018.53 1016.32 1014.88 1014.47 1014.15 1011.71 1010.42 1009.83 1009.18 1008.75 1008.33 1007.76 1006.52 1005.54 1004.96 1004.60 1004.67 1005.13 1005.37 1006.17 1006.62 1006.54 1006.48 1005.14 1005.21 1005.16 1005.02 1005.23 1005.04 1005.36 1005.48 1005.69 1005.80 1005.95 1006.25 1006.54 1007.14
1021.75 1021.66 1021.51 1021.27 1021.00 1020.63 1020.53 1020.28 1020.08 1019.62 1019.23 1018.99 1018.73 1018.64 1018.60 1018.63 1018.54 1018.39 1017.12 1016.04 1015.13 1013.52 1011.14 1009.25 1007.44 1006.90 1007.48 1007.52 1007.75 1007.44 1005.85 1006.03 1006.02 1005.76 1005.44 1006.42 1006.90 1007.70 1007.64 1006.55 1006.54 1005.08 1004.58 1004.78 1005.17 1005.10 1005.12 1005.21 1005.32 1005.97 1006.44 1006.59 1006.76 1006.93
1021.49 1021.40 1021.26 1021.07 1020.67 1020.36 1020.13 1020.04 1019.77 1019.45 1019.18 1018.86 1018.54 1018.48 1018.50 1018.42 1018.33 1018.25 1017.37 1016.33 1015.64 1013.87 1011.18 1006.45 1005.16 1005.09 1005.75 1006.26 1006.95 1007.13 1007.00 1006.84 1006.50 1006.49 1006.13 1006.28 1006.72 1007.00 1006.67 1005.39 1005.13 1004.44 1004.59 1004.52 1004.44 1004.70 1005.06 1005.62 1005.96 1006.10 1006.56 1006.84 1007.45 1007.38
1021.11 1020.98 1020.82 1020.60 1020.32 1020.15 1019.94 1019.77 1019.45 1019.20 1019.00 1018.77 1018.41 1018.38 1018.36 1018.26 1018.12 1017.76 1016.93 1016.14 1015.63 1015.16 1011.79 1008.73 1007.15 1005.65 1004.99 1005.34 1005.86 1006.41 1006.56 1006.57 1006.36 1006.09 1005.88 1006.24 1005.98 1005.75 1005.95 1005.19 1004.93 1004.77 1004.43 1004.42 1004.38 1004.65 1005.16 1006.13 1007.62 1007.53 1008.48 1007.44 1007.27 1007.55
1020.83 1020.65 1020.41 1020.21 1020.00 1019.74 1019.73 1019.51 1019.19 1019.05 1018.92 1018.61 1018.35 1018.25 1018.21 1018.12 1017.95 1017.43 1015.93 1014.68 1014.81 1014.77 1013.17 1009.22 1005.50 1004.52 1004.20 1004.14 1005.15 1005.48 1006.04 1006.03 1005.92 1005.88 1005.62 1005.64 1005.76 1006.39 1005.82 1005.38 1005.18 1004.84 1004.41 1004.38 1004.63 1004.83 1005.12 1006.17 1007.93 1008.18 1009.70 1009.14 1007.16 1007.80
1020.49 1020.29 1020.08 1019.87 1019.76 1019.46 1019.36 1019.26 1018.98 1018.93 1018.66 1018.45 1018.29 1018.17 1018.07 1017.99 1017.61 1017.05 1016.49 1015.79 1015.83 1015.13 1013.13 1009.07 1005.52 1003.92 1004.17 1004.21 1004.43 1004.99 1005.29 1005.37 1005.47 1005.62 1005.47 1005.29 1005.73 1006.05 1006.27 1005.40 1004.98 1004.83 1004.63 1004.57 1004.76 1005.17 1005.34 1006.14 1007.86 1009.07 1009.27 1008.06 1006.46 1008.07
1020.14 1019.97 1019.77 1019.72 1019.49 1019.13 1019.03 1018.99 1018.84 1018.61 1018.44 1018.27 1018.18 1018.03 1017.91 1017.79 1017.46 1016.50 1014.10 1014.99 1015.80 1014.48 1011.84 1008.74 1005.86 1004.26 1003.84 1003.75 1003.91 1004.38 1004.62 1005.07 1005.25 1005.22 1005.09 1005.09 1005.28 1005.59 1005.10 1004.55 1004.61 1004.50 1004.34 1004.28 1004.46 1004.84 1005.29 1006.65 1007.61 1008.49 1008.96 1007.16 1008.02 1008.38
1019.66 1019.57 1019.42 1019.36 1019.19 1018.91 1018.84 1018.68 1018.52 1018.43 1018.28 1018.08 1017.97 1017.85 1017.42 1017.31 1016.14 1014.63 1014.36 1014.59 1015.03 1014.15 1011.44 1007.81 1005.77 1005.43 1005.30 1003.65 1003.41 1003.79 1003.90 1004.33 1004.51 1004.54 1004.55 1005.29 1005.13 1004.73 1004.44 1004.06 1004.11 1004.29 1004.33 1004.09 1004.09 1004.46 1004.89 1006.65 1007.73 1009.66 1009.75 1009.91 1008.25 1008.27
1019.19 1019.17 1019.12 1019.02 1018.80 1018.61 1018.52 1018.37 1018.31 1018.24 1017.96 1017.85 1017.83 1017.01 1015.72 1014.88 1014.68 1014.92 1015.05 1014.25 1013.78 1012.08 1010.75 1008.13 1006.14 1005.17 1004.76 1003.88 1003.38 1003.69 1003.82 1004.50 1005.02 1004.16 1004.01 1003.74 1003.47 1003.39 1003.33 1003.27 1003.50 1003.67 1003.77 1003.98 1003.77 1004.16 1004.53 1005.76 1007.85 1009.60 1009.45 1007.66 1007.98 1008.18
1018.79 1018.79 1018.70 1018.56 1018.45 1018.35 1018.28 1018.15 1018.17 1017.96 1017.27 1017.14 1016.37 1015.25 1014.68 1014.80 1014.35 1013.14 1012.57 1011.82 1010.62 1008.94 1007.48 1006.34 1005.82 1004.77 1004.15 1004.26 1003.94 1004.35 1004.41 1004.20 1004.78 1004.68 1003.70 1003.53 1003.13 1002.07 1001.98 1002.20 1002.68 1003.01 1003.17 1003.25 1003.42 1003.77 1004.41 1005.30 1005.45 1006.57 1006.42 1006.86 1007.74 1008.39
1018.37 1018.26 1018.15 1018.15 1018.14 1018.13 1018.03 1018.04 1018.09 1017.81 1017.37 1017.55 1017.29 1015.65 1014.15 1013.57 1012.83 1012.14 1010.62 1009.43 1008.26 1007.15 1004.99 1004.50 1004.35 1004.49 1004.20 1004.24 1005.29 1005.03 1004.90 1006.50 1004.48 1003.32 1003.09 1002.48 1001.79 1001.85 1001.69 1001.94 1002.33 1002.56 1002.80 1002.82 1003.05 1003.48 1004.20 1004.86 1004.84 1007.11 1006.76 1006.80 1007.75 1008.43
1017.89 1017.76 1017.76 1017.82 1017.88 1017.83 1017.85 1017.95 1017.92 1017.84 1017.29 1016.13 1016.36 1014.61 1013.12 1012.04 1011.33 1009.95 1008.12 1006.97 1006.05 1005.17 1004.36 1004.31 1003.98 1004.09 1004.30 1004.42 1006.07 1006.50 1006.14 1006.31 1006.11 1005.27 1003.52 1002.03 1001.26 1001.34 1001.46 1001.68 1001.96 1002.29 1002.58 1002.58 1002.76 1003.31 1003.99 1004.66 1005.60 1005.90 1006.92 1007.26 1007.42 1008.06
1017.49 1017.47 1017.50 1017.53 1017.54 1017.59 1017.73 1017.78 1017.83 1017.71 1017.27 1016.08 1014.85 1013.93 1011.91 1009.93 1008.57 1007.15 1006.40 1005.78 1005.80 1004.71 1004.64 1003.75 1004.05 1004.34 1004.34 1004.59 1004.95 1007.78 1007.29 1006.66 1006.74 1005.77 1002.97 1001.21 1001.05 1001.12 1001.36 1001.66 1001.79 1002.08 1002.33 1002.48 1002.85 1003.27 1003.80 1004.43 1005.02 1005.71 1006.27 1006.70 1007.17 1008.00
1017.12 1017.11 1017.05 1017.06 1017.13 1017.37 1017.55 1017.66 1017.76 1017.46 1016.97 1015.81 1014.65 1012.67 1010.25 1008.33 1007.59 1006.68 1006.64 1006.38 1004.96 1004.77 1004.83 1004.38 1004.14 1004.37 1004.53 1004.74 1004.24 1004.83 1005.21 1004.92 1004.92 1003.92 1003.37 1002.10 1001.61 1001.47 1001.54 1001.62 1001.64 1001.87 1002.21 1002.44 1002.84 1003.39 1003.79 1004.26 1004.62 1005.12 1005.69 1006.34 1006.97 1007.91
1016.83 1016.72 1016.25 1016.37 1016.66 1017.08 1017.34 1017.58 1017.49 1017.02 1016.33 1015.25 1013.86 1011.80 1009.56 1008.58 1007.47 1007.32 1006.47 1006.22 1006.00 1005.19 1005.00 1005.09 1005.29 1004.51 1004.45 1004.08 1003.08 1003.13 1004.13 1004.73 1005.27 1005.79 1005.26 1003.42 1002.69 1002.19 1002.00 1001.83 1001.68 1001.74 1002.05 1002.38 1002.83 1003.39 1003.80 1004.10 1004.54 1005.02 1005.53 1006.11 1006.76 1007.56
1016.67 1015.74 1015.41 1016.01 1016.50 1016.84 1017.17 1017.25 1016.74 1016.17 1014.72 1013.24 1011.63 1010.19 1009.46 1008.59 1008.25 1007.48 1007.59 1007.86 1007.84 1007.11 1005.64 1005.69 1005.52 1004.74 1003.34 1003.12 1002.67 1002.29 1002.31 1002.69 1003.71 1004.80 1004.79 1004.71 1004.31 1003.48 1002.99 1002.47 1002.16 1002.00 1002.10 1002.31 1002.66 1003.24 1003.71 1004.09 1004.49 1004.95 1005.37 1005.83 1006.21 1006.90
1015.97 1015.14 1015.77 1016.17 1016.42 1016.67 1016.99 1016.87 1015.91 1014.54 1013.03 1011.63 1010.31 1009.16 1008.35 1007.55 1007.74 1007.84 1007.36 1007.94 1008.46 1006.99 1006.78 1006.45 1005.26 1004.82 1003.50 1002.73 1002.42 1002.22 1002.42 1002.69 1003.23 1004.19 1005.50 1005.46 1006.50 1005.70 1003.75 1002.99 1002.73 1002.54 1002.30 1002.42 1002.59 1003.07 1003.56 1003.89 1004.30 1004.78 1005.23 1005.68 1006.03 1006.45
1015.63 1015.54 1015.88 1016.16 1016.25 1016.25 1016.13 1015.62 1014.91 1013.23 1011.22 1010.16 1009.35 1008.57 1008.03 1007.59 1007.04 1006.96 1006.95 1007.39 1008.07 1007.09 1006.81 1006.54 1005.88 1004.50 1003.86 1003.42 1003.39 1003.60 1003.68 1004.18 1004.72 1005.33 1005.80 1006.00 1005.59 1005.07 1003.83 1003.08 1002.94 1002.71 1002.52 1002.58 1002.63 1002.85 1003.15 1003.68 1003.86 1004.19 1004.52 1005.06 1005.63 1005.93
1016.11 1015.85 1016.00 1016.26 1016.47 1016.26 1015.70 1014.32 1013.69 1012.34 1010.21 1008.66 1008.18 1007.74 1007.41 1007.05 1006.96 1006.41 1006.13 1006.69 1006.43 1006.72 1006.43 1005.75 1005.01 1004.42 1004.09 1004.03 1004.38 1004.54 1004.80 1004.89 1005.17 1004.43 1005.67 1006.31 1005.14 1005.25 1003.41 1002.73 1002.26 1002.13 1002.40 1002.57 1002.71 1002.78 1002.86 1003.19 1003.54 1003.61 1003.71 1004.21 1004.64 1005.13
1016.07 1015.94 1016.19 1016.38 1016.36 1016.30 1015.46 1014.20 1013.26 1011.88 1010.13 1009.07 1007.59 1007.43 1007.15 1006.83 1006.53 1005.93 1005.35 1005.48 1005.37 1005.22 1005.06 1004.73 1004.29 1003.98 1003.76 1004.20 1004.64 1004.68 1004.98 1004.77 1004.87 1005.09 1006.23 1007.17 1005.34 1003.59 1002.28 1001.98 1002.06 1001.88 1001.50 1002.01 1002.41 1002.54 1002.76 1002.47 1002.74 1003.07 1003.17 1003.43 1003.51 1003.76
1015.44 1015.76 1015.91 1016.08 1015.71 1015.70 1014.90 1013.05 1012.02 1010.87 1010.33 1008.47 1007.37 1006.87 1006.50 1006.05 1005.74 1005.64 1005.46 1004.67 1004.30 1004.14 1003.89 1003.72 1003.54 1003.52 1003.49 1003.90 1004.22 1004.45 1004.77 1005.15 1005.18 1004.28 1003.85 1003.82 1003.48 1002.59 1002.58 1002.39 1001.68 1001.50 1001.10 1001.17 1001.65 1001.99 1002.18 1002.20 1002.10 1002.39 1002.66 1002.58 1002.98 1003.10
1015.80 1015.78 1015.61 1015.48 1015.28 1014.61 1013.03 1011.58 1011.28 1010.15 1009.03 1007.44 1006.77 1006.46 1005.47 1005.36 1005.01 1004.55 1004.28 1003.61 1003.17 1002.78 1002.73 1002.65 1002.70 1003.13 1003.29 1003.52 1003.77 1003.97 1004.08 1004.15 1003.69 1003.52 1003.03 1002.77 1002.61 1002.51 1002.29 1002.53 1002.16 1002.01 1002.09 1002.16 1002.29 1002.34 1001.97 1001.74 1002.09 1002.45 1002.74 1002.84 1003.08 1003.44
1016.01 1015.60 1015.16 1014.76 1014.49 1013.27 1011.78 1010.83 1010.15 1009.37 1008.51 1007.60 1006.60 1005.96 1005.42 1005.04 1004.34 1004.38 1003.53 1002.75 1002.36 1002.31 1002.28 1002.17 1002.21 1002.46 1002.55 1002.68 1002.66 1002.63 1002.83 1003.12 1003.18 1002.75 1002.51 1002.25 1002.14 1002.12 1002.47 1002.53 1002.65 1002.53 1002.65 1002.81 1003.30 1003.42 1003.83 1003.90 1003.52 1003.66 1003.61 1003.90 1004.35 1004.76
1015.71 1015.19 1014.52 1013.55 1012.86 1012.06 1010.41 1009.28 1008.66 1008.37 1007.85 1007.24 1007.03 1006.25 1005.53 1004.90 1004.49 1003.93 1003.21 1002.93 1002.63 1002.62 1002.23 1001.83 1001.74 1001.76 1001.78 1001.82 1001.57 1001.35 1001.59 1001.79 1001.78 1001.66 1001.78 1001.75 1002.03 1001.99 1002.24 1003.27 1003.62 1004.29 1003.64 1003.41 1003.55 1003.87 1004.45 1004.61 1004.66 1005.15 1005.49 1005.39 1005.68 1005.33
1014.55 1013.36 1012.67 1010.95 1010.27 1009.93 1008.70 1007.90 1007.92 1008.17 1008.26 1007.64 1007.44 1007.06 1006.54 1005.89 1004.90 1004.10 1004.21 1003.99 1003.57 1002.99 1002.73 1002.47 1002.90 1002.61 1001.98 1001.34 1001.27 1001.01 1000.96 1001.02 1001.34 1001.77 1001.94 1001.85 1002.46 1001.95 1002.82 1003.63 1004.38 1004.88 1004.97 1004.71 1004.31 1004.12 1003.98 1003.86 1003.84 1003.88 1004.22 1004.39 1005.08 1005.26
1012.95 1011.15 1010.07 1009.34 1008.90 1008.82 1008.48 1007.97 1007.88 1008.12 1007.81 1007.14 1007.06 1007.35 1007.26 1006.31 1005.16 1004.90 1004.44 1004.03 1003.83 1003.21 1002.80 1002.94 1003.25 1003.38 1003.03 1001.21 1001.19 1001.27 1001.50 1001.73 1002.25 1002.84 1002.67 1002.66 1002.82 1003.09 1003.31 1003.91 1004.60 1004.85 1005.37 1005.13 1005.04 1004.82 1004.59 1004.33 1004.08 1003.87 1003.77 1003.70 1004.17 1004.47
1010.89 1009.62 1008.76 1008.34 1008.16 1008.04 1007.99 1007.84 1007.81 1007.62 1007.36 1007.63 1007.64 1007.17 1006.75 1006.56 1005.78 1004.95 1004.27 1003.95 1003.05 1002.90 1002.11 1001.58 1002.96 1002.99 1002.78 1001.46 1001.56 1001.93 1002.03 1002.27 1002.47 1002.45 1002.79 1003.05 1003.10 1002.94 1003.25 1003.46 1004.08 1004.66 1004.50 1004.47 1004.57 1004.69 1004.58 1004.46 1004.36 1004.19 1004.09 1003.80 1003.85 1004.03
1009.63 1008.69 1008.13 1007.88 1007.74 1007.65 1007.81 1008.00 1007.95 1007.80 1007.93 1008.31 1008.32 1007.56 1006.93 1006.20 1004.89 1005.20 1004.74 1003.64 1002.85 1001.96 1001.75 1001.65 1002.32 1001.71 1001.49 1001.64 1001.82 1002.13 1002.16 1002.00 1002.35 1002.73 1002.81 1002.77 1002.98 1002.92 1003.08 1003.19 1003.62 1003.89 1003.98 1004.02 1004.50 1004.28 1004.26 1004.46 1004.62 1004.78 1004.57 1004.10 1003.68 1003.24
1008.23 1007.72 1007.54 1007.50 1007.56 1007.43 1007.26 1007.73 1008.15 1008.47 1008.75 1008.78 1008.61 1008.01 1007.07 1005.57 1005.03 1004.84 1003.70 1003.03 1003.16 1002.46 1002.58 1002.87 1002.96 1002.52 1002.28 1002.14 1001.94 1003.01 1003.42 1003.28 1003.14 1003.55 1002.95 1002.47 1002.57 1002.65 1002.96 1003.20 1002.49 1002.63 1002.46 1002.48 1002.98 1003.71 1004.49 1004.42 1004.21 1004.36 1004.11 1003.65 1003.51 1003.37
1007.25 1007.08 1007.18 1007.06 1007.00 1007.10 1007.25 1007.64 1008.02 1008.45 1008.44 1008.29 1008.11 1007.89 1006.79 1005.76 1003.19 1003.04 1003.04 1002.72 1002.99 1003.79 1003.34 1003.41 1003.13 1002.82 1002.67 1003.04 1003.14 1003.47 1004.18 1004.44 1004.24 1004.07 1003.49 1002.89 1002.85 1003.18 1003.15 1002.78 1002.48 1002.48 1002.39 1002.64 1002.74 1002.24 1002.79 1003.08 1002.59 1002.27 1002.32 1002.36 1002.70 1003.09
1006.89 1006.99 1007.03 1006.91 1006.60 1006.22 1006.25 1006.32 1006.57 1006.97 1006.89 1007.14 1006.80 1006.18 1005.73 1005.41 1003.75 1002.13 1001.88 1001.66 1001.69 1002.31 1002.76 1002.99 1003.00 1002.69 1002.99 1003.13 1003.19 1003.35 1003.56 1003.81 1004.32 1004.40 1004.68 1004.63 1004.60 1004.55 1004.21 1003.71 1003.06 1002.54 1002.15 1002.02 1001.92 1001.88 1002.35 1002.41 1001.92 1001.96 1002.03 1002.18 1002.58 1003.02
1006.07 1006.15 1006.21 1006.01 1004.73 1003.52 1002.82 1004.08 1005.12 1006.04 1006.17 1005.85 1005.51 1005.34 1004.85 1004.23 1003.21 1002.40 1002.14 1001.97 1001.93 1001.49 1001.68 1001.83 1002.17 1002.58 1002.87 1002.90 1003.18 1003.22 1003.45 1004.43 1005.07 1005.32 1005.57 1005.74 1005.77 1005.53 1005.01 1004.32 1004.00 1003.73 1003.37 1002.90 1002.35 1001.83 1001.40 1001.21 1001.37 1001.91 1002.51 1001.45 1001.99 1003.03
Thickness
5590 5587 5586 5584 5582 5581 5579 5580 5580 5582 5584 5586 5589 5589 5590 5588 5589 5592 5609 5615 5614 5621 5637 5649 5657 5658 5667 5677 5675 5691 5695 5701 5706 5692 5694 5699 5693 5695 5687 5705 5701 5694 5691 5695 5703 5693 5689 5722 5723 5702 5711 5723 5721 5706
5580 5577 5575 5575 5573 5572 5570 5571 5572 5575 5578 5580 5581 5583 5583 5582 5582 5584 5601 5611 5613 5609 5628 5645 5651 5660 5662 5666 5667 5682 5690 5696 5703 5694 5696 5699 5682 5689 5683 5668 5715 5687 5701 5694 5697 5694 5712 5716 5710 5716 5720 5713 5711 5708
5570 5569 5568 5567 5566 5566 5562 5563 5564 5567 5571 5573 5575 5576 5576 5576 5577 5579 5590 5597 5603 5611 5631 5646 5657 5672 5674 5674 5676 5659 5687 5688 5686 5696 5691 5679 5672 5669 5653 5675 5673 5702 5718 5699 5697 5707 5707 5713 5716 5712 5711 5708 5710 5708
5562 5561 5559 5558 5559 5559 5559 5558 5559 5561 5563 5565 5568 5569 5570 5571 5572 5574 5581 5590 5594 5607 5618 5661 5686 5677 5682 5679 5673 5674 5673 5680 5686 5683 5680 5679 5670 5682 5676 5695 5692 5707 5706 5699 5700 5707 5708 5704 5704 5703 5701 5699 5694 5698
5555 5554 5552 5551 5552 5552 5552 5552 5555 5556 5557 5559 5561 5562 5564 5566 5568 5572 5578 5586 5589 5590 5612 5633 5655 5672 5681 5678 5674 5672 5671 5670 5672 5671 5673 5669 5685 5687 5688 5696 5689 5703 5697 5690 5687 5703 5693 5691 5673 5674 5668 5680 5687 5684
5545 5545 5546 5545 5545 5546 5544 5546 5548 5549 5550 5553 5556 5557 5559 5561 5563 5569 5584 5592 5590 5591 5596 5621 5667 5672 5679 5681 5671 5671 5670 5671 5671 5669 5673 5682 5690 5678 5674 5671 5692 5700 5708 5707 5695 5702 5699 5690 5662 5660 5643 5641 5682 5675
5537 5538 5539 5539 5539 5540 5540 5540 5542 5542 5541 5546 5549 5551 5554 5556 5559 5567 5576 5577 5577 5583 5593 5621 5649 5673 5675 5674 5672 5668 5671 5668 5668 5666 5668 5676 5675 5675 5661 5664 5688 5695 5700 5701 5700 5693 5683 5683 5662 5646 5643 5655 5677 5668
5529 5530 5531 5531 5532 5534 5535 5534 5534 5536 5537 5539 5542 5546 5549 5551 5556 5566 5584 5577 5571 5581 5602 5618 5639 5657 5674 5662 5659 5672 5663 5664 5664 5665 5672 5669 5674 5670 5664 5686 5691 5696 5699 5698 5695 5690 5682 5667 5659 5650 5647 5668 5658 5655
5523 5523 5524 5524 5525 5527 5527 5528 5530 5530 5531 5533 5537 5541 5545 5549 5560 5573 5576 5575 5571 5579 5592 5627 5632 5624 5652 5663 5669 5666 5670 5652 5670 5660 5665 5661 5660 5651 5677 5687 5690 5692 5689 5691 5693 5687 5679 5653 5639 5618 5627 5630 5651 5652
5516 5517 5517 5518 5520 5521 5522 5523 5523 5523 5526 5528 5532 5542 5554 5564 5564 5564 5563 5569 5572 5587 5598 5611 5634 5631 5649 5655 5658 5659 5664 5651 5628 5660 5674 5665 5668 5686 5691 5697 5697 5697 5696 5693 5685 5675 5673 5667 5638 5610 5629 5657 5653 5651
5510 5511 5512 5513 5514 5515 5516 5518 5517 5518 5525 5531 5542 5552 5556 5556 5562 5572 5573 5578 5590 5600 5618 5625 5628 5633 5654 5638 5647 5650 5649 5659 5639 5643 5656 5649 5657 5689 5702 5703 5703 5702 5700 5698 5694 5689 5681 5670 5670 5647 5658 5663 5655 5650
5504 5506 5508 5509 5509 5510 5512 5511 5510 5512 5520 5522 5529 5541 5556 5559 5565 5566 5579 5593 5599 5601 5633 5632 5635 5638 5645 5653 5623 5644 5640 5628 5643 5673 5659 5655 5680 5689 5700 5700 5702 5702 5700 5698 5697 5690 5683 5675 5677 5637 5653 5660 5654 5652
5500 5502 5503 5503 5504 5506 5506 5505 5506 5508 5514 5526 5531 5544 5555 5565 5556 5574 5587 5601 5609 5623 5633 5632 5630 5637 5641 5646 5616 5616 5625 5624 5633 5636 5645 5671 5689 5696 5699 5701 5701 5702 5699 5699 5697 5693 5686 5678 5668 5665 5657 5656 5661 5656
5496 5498 5498 5499 5500 5501 5500 5501 5502 5505 5512 5524 5536 5534 5557 5573 5587 5601 5607 5612 5615 5627 5625 5636 5630 5628 5635 5631 5631 5589 5608 5620 5606 5607 5652 5683 5689 5695 5698 5700 5699 5696 5697 5696 5693 5691 5686 5681 5674 5670 5667 5665 5662 5654
5493 5494 5495 5496 5497 5496 5496 5497 5498 5501 5508 5522 5530 5542 5566 5589 5597 5606 5605 5606 5623 5628 5624 5626 5629 5629 5624 5620 5635 5629 5626 5628 5635 5650 5659 5677 5687 5692 5693 5696 5697 5696 5695 5694 5692 5687 5685 5683 5680 5676 5674 5669 5664 5656
5488 5490 5495 5496 5494 5492 5492 5492 5495 5501 5508 5520 5530 5544 5569 5575 5587 5589 5604 5608 5613 5621 5624 5621 5609 5615 5614 5624 5633 5633 5621 5615 5622 5628 5633 5671 5678 5685 5689 5693 5696 5697 5695 5693 5691 5687 5684 5682 5679 5676 5674 5670 5665 5659
5484 5493 5495 5492 5489 5488 5487 5489 5496 5502 5518 5531 5542 5557 5563 5570 5571 5586 5591 5586 5585 5597 5607 5605 5598 5606 5635 5627 5630 5645 5642 5648 5650 5637 5646 5646 5654 5667 5674 5681 5687 5691 5692 5692 5690 5686 5683 5683 5681 5676 5669 5669 5669 5664
5484 5490 5487 5485 5484 5484 5484 5486 5496 5511 5523 5536 5544 5557 5567 5577 5573 5577 5591 5586 5581 5593 5595 5594 5613 5607 5617 5623 5632 5647 5651 5655 5655 5648 5636 5631 5621 5631 5657 5667 5675 5680 5686 5687 5688 5685 5682 5679 5675 5671 5670 5669 5668 5665
5481 5482 5481 5480 5480 5482 5486 5493 5499 5513 5531 5541 5550 5558 5564 5570 5581 5586 5591 5585 5580 5595 5595 5593 5594 5607 5615 5628 5629 5629 5637 5636 5630 5628 5630 5634 5636 5639 5656 5667 5668 5672 5678 5680 5682 5681 5681 5677 5676 5675 5674 5671 5664 5666
5472 5475 5475 5474 5474 5477 5483 5499 5504 5514 5531 5548 5554 5556 5562 5568 5572 5584 5591 5587 5593 5585 5588 5593 5600 5610 5614 5620 5622 5624 5626 5629 5625 5627 5620 5617 5627 5626 5651 5660 5666 5672 5672 5674 5676 5676 5678 5676 5675 5676 5677 5674 5669 5666
5469 5472 5470 5470 5471 5473 5481 5490 5498 5512 5529 5536 5554 5552 5556 5565 5568 5577 5587 5593 5592 5595 5594 5603 5609 5615 5621 5620 5618 5623 5621 5627 5621 5619 5599 5591 5617 5637 5653 5662 5663 5667 5672 5670 5668 5670 5664 5674 5675 5676 5676 5674 5675 5675
5472 5470 5470 5469 5476 5476 5481 5502 5510 5520 5522 5540 5551 5558 5559 5563 5568 5573 5581 5588 5592 5596 5602 5607 5613 5615 5618 5618 5617 5618 5616 5610 5616 5628 5627 5631 5635 5645 5645 5647 5659 5661 5669 5671 5669 5668 5669 5671 5676 5675 5673 5675 5673 5674
5466 5468 5470 5473 5477 5480 5498 5512 5511 5523 5529 5546 5555 5554 5567 5567 5576 5587 5582 5593 5599 5608 5610 5613 5616 5615 5615 5618 5618 5620 5619 5619 5625 5628 5634 5637 5639 5642 5646 5647 5652 5651 5648 5651 5653 5657 5662 5670 5667 5666 5664 5664 5662 5658
5463 5469 5473 5476 5478 5490 5510 5515 5522 5528 5536 5543 5554 5558 5565 5571 5585 5578 5585 5598 5606 5608 5609 5613 5617 5616 5619 5620 5623 5626 5627 5625 5626 5632 5636 5638 5637 5639 5638 5641 5640 5642 5643 5643 5640 5642 5639 5640 5641 5640 5643 5650 5641 5626
5465 5470 5477 5475 5495 5502 5517 5529 5535 5538 5541 5549 5548 5558 5566 5575 5577 5584 5590 5596 5600 5604 5611 5615 5621 5624 5620 5619 5629 5634 5636 5635 5632 5633 5634 5639 5633 5636 5637 5625 5612 5613 5626 5629 5628 5629 5624 5617 5617 5617 5616 5619 5620 5625
5469 5487 5489 5510 5517 5519 5533 5540 5541 5538 5537 5543 5545 5552 5560 5566 5576 5584 5580 5588 5595 5604 5609 5612 5606 5610 5616 5626 5624 5630 5633 5637 5633 5626 5628 5630 5625 5629 5619 5610 5603 5600 5605 5608 5611 5614 5619 5622 5621 5623 5620 5616 5612 5612
5478 5503 5516 5526 5529 5529 5532 5540 5543 5539 5544 5553 5556 5552 5553 5562 5574 5578 5586 5590 5593 5601 5606 5602 5599 5601 5603 5625 5629 5630 5629 5628 5619 5616 5622 5622 5620 5615 5610 5601 5593 5595 5595 5598 5598 5599 5600 5603 5605 5608 5610 5612 5608 5606
5506 5518 5522 5530 5532 5537 5536 5540 5543 5546 5553 5553 5555 5559 5564 5563 5572 5585 5591 5597 5602 5608 5616 5622 5607 5607 5603 5624 5625 5622 5621 5619 5619 5621 5617 5614 5613 5613 5609 5607 5601 5593 5597 5596 5594 5593 5594 5594 5594 5595 5595 5597 5597 5598
5514 5525 5531 5531 5536 5539 5539 5540 5544 5550 5553 5549 5547 5557 5564 5573 5583 5583 5590 5600 5607 5614 5616 5619 5614 5624 5626 5625 5623 5619 5619 5618 5612 5604 5603 5603 5602 5605 5607 5605 5601 5598 5597 5596 5589 5592 5593 5591 5590 5587 5587 5590 5594 5600
5526 5536 5535 5538 5537 5540 5549 5548 5546 5548 5546 5548 5551 5559 5567 5582 5588 5586 5593 5603 5600 5607 5611 5610 5609 5613 5614 5613 5617 5608 5605 5608 5608 5599 5602 5604 5604 5609 5604 5600 5607 5606 5606 5606 5602 5596 5581 5584 5586 5586 5586 5587 5588 5588
5538 5541 5540 5545 5547 5550 5551 5550 5549 5548 5550 5554 5556 5557 5570 5578 5603 5605 5605 5608 5607 5598 5603 5601 5605 5611 5611 5604 5602 5600 5595 5593 5593 5598 5603 5608 5607 5601 5599 5601 5602 5601 5599 5595 5595 5598 5592 5589 5591 5593 5591 5589 5586 5580
5541 5539 5540 5540 5548 5559 5564 5566 5568 5563 5569 5567 5573 5579 5582 5583 5592 5610 5617 5618 5617 5613 5608 5607 5607 5610 5610 5609 5607 5607 5604 5602 5596 5593 5589 5588 5586 5584 5586 5588 5591 5592 5592 5591 5591 5590 5583 5581 5583 5583 5580 5576 5572 5570
5549 5551 5550 5554 5572 5588 5601 5588 5577 5570 5574 5577 5584 5586 5584 5592 5595 5608 5616 5619 5617 5621 5618 5618 5616 5612 5609 5607 5603 5603 5601 5591 5583 5577 5573 5570 5567 5568 5572 5575 5574 5572 5571 5572 5574 5576 5577 5576 5571 5567 5564 5570 5563 5552